This is the latest recevied weather packets stored in our database for station/object W5LND-10. If no packets are shown the sender has not sent any weather packets the latest 10 day(s).
| Time | Temp. | Humidity | Pressure | Rain* | Wind** | Luminosity | Snow |
|---|---|---|---|---|---|---|---|
| 1778000470 | 29.44° C | 23% | 1003.2 hPa | 0 mm | - | 838 W/m² | - |
| 1778000170 | 29.44° C | 24% | 1003.2 hPa | 0 mm | - | 875 W/m² | - |
| 1777999870 | 28.89° C | 25% | 1003.1 hPa | 0 mm | - | 701 W/m² | - |
| 1777999570 | 28.89° C | 25% | 1003.2 hPa | 0 mm | - | 895 W/m² | - |
| 1777999270 | 28.33° C | 26% | 1003.2 hPa | 0 mm | - | 589 W/m² | - |
| 1777998970 | 28.33° C | 25% | 1003.3 hPa | 0 mm | - | 647 W/m² | - |
| 1777998670 | 28.33° C | 27% | 1003.3 hPa | 0 mm | - | 654 W/m² | - |
| 1777998370 | 27.78° C | 28% | 1003.3 hPa | 0 mm | - | 654 W/m² | - |
| 1777998073 | 27.78° C | 28% | 1003.4 hPa | 0 mm | - | 729 W/m² | - |
| 1777997773 | 27.78° C | 28% | 1003.2 hPa | 0 mm | - | 466 W/m² | - |
| 1777997470 | 27.22° C | 29% | 1003.2 hPa | 0 mm | - | 564 W/m² | - |
| 1777997170 | 27.22° C | 32% | 1003.2 hPa | 0 mm | - | 494 W/m² | - |
| 1777996870 | 26.67° C | 35% | 1003.1 hPa | 0 mm | - | 478 W/m² | - |
| 1777996570 | 26.67° C | 38% | 1003.2 hPa | 0 mm | - | 529 W/m² | - |
| 1777996270 | 26.11° C | 42% | 1003.1 hPa | 0 mm | - | 568 W/m² | - |
| 1777995970 | 26.11° C | 45% | 1003.2 hPa | 0 mm | - | 610 W/m² | - |
| 1777995670 | 25.56° C | 46% | 1003.1 hPa | 0 mm | - | 733 W/m² | - |
| 1777995370 | 25.56° C | 47% | 1003 hPa | 0 mm | - | 573 W/m² | - |
| 1777995070 | 25° C | 48% | 1003.1 hPa | 0 mm | - | 564 W/m² | - |
| 1777994770 | 25° C | 49% | 1002.9 hPa | 0 mm | - | 642 W/m² | - |
| 1777994470 | 24.44° C | 50% | 1002.8 hPa | 0 mm | - | 561 W/m² | - |
| 1777994173 | 24.44° C | 51% | 1002.8 hPa | 0 mm | - | 464 W/m² | - |
| 1777993872 | 23.89° C | 53% | 1002.8 hPa | 0 mm | - | 417 W/m² | - |
| 1777993570 | 23.89° C | 53% | 1002.8 hPa | 0 mm | - | 434 W/m² | - |
| 1777993274 | 23.89° C | 56% | 1002.8 hPa | 0 mm | - | 554 W/m² | - |
* Rain latest hour (hover to see other rain measurements)
** Current wind speed in m/s (hover to see current wind gust speed)